Location: ?????????
(41.2286°N, 23.0068°E)
Time: 00:42:31
(UTC+00:00)

Cosmos 2061 Rocket - Pass Details

Date: 08 November 2025
Orbit: 964 x 1013 km, 82.9° (Epoch: 07 December)

Event Time Altitude Azimuth Distance (km) Brightness Sun altitude
Rises 04:22:47 0° 348° (NNW) 3,669 6.7 -8.9°
Reaches altitude 10° 04:25:20 10° 344° (NNW) 2,714 6.0 -8.4°
Maximum altitude 04:31:21 56° 268° (W) 1,141 4.1 -7.3°
Drops below altitude 10° 04:37:21 10° 192° (SSW) 2,694 6.4 -6.2°
Sets 04:39:53 0° 188° (S) 3,638 7.1 -5.8°
